トータス彗星

C/2017 M5 ( TOTAS )

English version
Home page
Updated on September 17, 2019

---------------------------------------------------------------------

・ プロフィール

発見日 2017年6月23日
発見光度 18.6等
発見者 Teide Observatory Tenerife Asteroid Survey (TOTAS)

・ 写真集

・ 軌道要素

Epoch 2018 June 11.0 TT = JDT 2458280.5
T 2018 June 2.97200 TT                                  Williams
q   5.9895731            (2000.0)            P               Q
z  -0.0006424      Peri.   92.66077     +0.60571843     +0.77903519
 +/-0.0000009      Node   216.26263     -0.79432605     +0.58017914
e   1.0038478      Incl.   15.88486     -0.04638218     +0.23768959
From 268 observations 2016 May 30-2019 Aug. 7, mean residual 0".5.

・ 光度変化

        m1 = -4.5 + 5 logΔ + 24 log r

---------------------------------------------------------------------

軌道要素はM.P.E.C. 2019-Q135に掲載されたものです。
光度グラフはComet for Windowsで作成したものです。

---------------------------------------------------------------------

Copyright(C) Seiichi Yoshida (comet@aerith.net). All rights reserved.